Location: Clermont
(50.2608°N, 4.3172°E)
Time: 05:40:03
(UTC+00:00)

Cosmos 1782 Rocket - Pass Details

Date: 13 August 2020
Orbit: 608 x 631 km, 82.5° (Epoch: 19 September)

Event Time Altitude Azimuth Distance (km) Brightness Sun altitude
Exits shadow 23:00:31 46° 69° (ENE) 825 4.2 -24.6°
Drops below altitude 10° 23:04:11 10° 20° (NNE) 1,972 6.9 -24.8°
Sets 23:06:27 0° 15° (NNE) 2,882 8.0 -24.8°
